User: anonymous
Location: Luz Observatory
(34.5000°N, 117.2833°W)
Time: 01:18:59
(UTC-07:00)
Language:

Okean 3 Rocket - Orbit

View from above orbital plane
View from above orbital plane
View from above satellite
View from above satellite

Ground track
Ground track

The orbit data is extracted from the following two-line orbital elements,

1 21398U 91039B   14204.96053792  .00000162  00000-0  18579-4 0  7987
2 21398 082.5251 131.9438 0022739 056.9800 355.5496 14.79178259247292
Epoch (UTC): 23 July 2014 23:03:10
Eccentricity: 0.0022739
inclination: 82.5251°
perigee height: 616 km
apogee height: 648 km
right ascension of ascending node: 131.9438°
argument of perigee: 56.9800°
revolutions per day: 14.79178259
mean anomaly at epoch: 355.5496°
orbit number at epoch: 24729

The dashed part of the orbit path shows where the satellite is in the earth's shadow,  

DLR